sat.trackr.live / text

‹ back to catalog

STARLINK-36242

NORAD 68958 · 2026-099H

PAYLOAD ACTIVE UNKNOWN

§ Identity

Operator
Country
US
Launch date
2026-05-01
Launch site
AFETR
Launch vehicle
Mass (kg)
RCS (m²)

Purposes: comms

External: N2YO · Heavens-Above · Gunter

§ Orbital elements

Epoch: 2026-09-20T04:17:41.013024Z

Period
93.85 min
Inclination
53.1573°
Eccentricity
0.0001226
Mean motion
15.34414927 rev/d
Perigee alt
461.8 km
Apogee alt
463.5 km
Semi-major
6,840.8 km
B*
6.0734e-4
RAAN
77.3927°
Arg perigee
83.6893°
Mean anomaly
276.4249°
Rev number
2,185

§ Raw data

STARLINK-362421 68958U 26099H   26263.17894691  .00020209  00000+0  60734-3 0  99912 68958  53.1573  77.3927 0001226  83.6893 276.4249 15.34414927 21855

JSON: /api/v1/satellites/68958 · /tle

For live sub-satellite position, see the globe view (requires WebGL).

§ Visibility from observer

Set your observer location to see the next 7 days of passes ≥ 10°. The values pass through the URL so the page stays shareable.

No JS? Fill the form by hand. The geolocation button needs JavaScript.